TimePST,TemperatureF,Dew PointF,Humidity,Sea Level PressureIn,VisibilityMPH,Wind Direction,Wind SpeedMPH,Gust SpeedMPH,PrecipitationIn,Events,Conditions,WindDirDegrees,DateUTC
12:53 AM,61.0,43.0,52,30.00,10.0,Calm,Calm,-,N/A,,Clear,0,2013-11-08 08:53:00
1:53 AM,62.1,36.0,38,29.99,10.0,Calm,Calm,-,N/A,,Clear,0,2013-11-08 09:53:00
2:53 AM,59.0,39.0,48,29.99,10.0,Calm,Calm,-,N/A,,Clear,0,2013-11-08 10:53:00
3:53 AM,57.0,42.1,57,29.99,10.0,Calm,Calm,-,N/A,,Clear,0,2013-11-08 11:53:00
4:53 AM,57.9,39.9,51,30.00,10.0,Calm,Calm,-,N/A,,Clear,0,2013-11-08 12:53:00
5:53 AM,57.9,45.0,62,30.01,10.0,Calm,Calm,-,N/A,,Clear,0,2013-11-08 13:53:00
6:53 AM,60.1,39.9,47,30.01,10.0,ESE,4.6,-,N/A,,Clear,110,2013-11-08 14:53:00
7:53 AM,63.0,43.0,48,30.04,10.0,East,3.5,-,N/A,,Clear,100,2013-11-08 15:53:00
8:53 AM,64.9,52.0,63,30.04,10.0,East,4.6,-,N/A,,Clear,100,2013-11-08 16:53:00
9:53 AM,70.0,48.0,46,30.03,10.0,East,3.5,-,N/A,,Clear,100,2013-11-08 17:53:00
10:53 AM,73.0,46.0,38,30.02,10.0,SE,4.6,-,N/A,,Clear,130,2013-11-08 18:53:00
11:53 AM,75.0,44.1,33,30.00,10.0,SSW,3.5,-,N/A,,Clear,210,2013-11-08 19:53:00
12:53 PM,75.9,43.0,31,29.97,10.0,SSW,4.6,-,N/A,,Clear,200,2013-11-08 20:53:00
1:53 PM,75.0,50.0,41,29.95,10.0,West,6.9,-,N/A,,Clear,270,2013-11-08 21:53:00
2:53 PM,73.9,50.0,43,29.94,10.0,West,6.9,-,N/A,,Clear,260,2013-11-08 22:53:00
3:53 PM,70.0,53.1,55,29.94,10.0,WSW,6.9,-,N/A,,Clear,250,2013-11-08 23:53:00
4:53 PM,68.0,48.9,50,29.94,10.0,WSW,5.8,-,N/A,,Clear,250,2013-11-09 00:53:00
5:53 PM,66.0,48.9,54,29.95,10.0,WNW,4.6,-,N/A,,Clear,290,2013-11-09 01:53:00
6:53 PM,64.9,54.0,68,29.96,10.0,West,4.6,-,N/A,,Clear,260,2013-11-09 02:53:00
7:53 PM,63.0,57.9,84,29.97,10.0,Calm,Calm,-,N/A,,Clear,0,2013-11-09 03:53:00
8:53 PM,62.1,57.9,86,29.99,10.0,Calm,Calm,-,N/A,,Clear,0,2013-11-09 04:53:00
9:00 PM,62.6,57.2,82,29.99,10.0,Calm,Calm,-,N/A,,Scattered Clouds,0,2013-11-09 05:00:00
9:09 PM,62.6,57.2,82,29.99,10.0,Calm,Calm,-,N/A,,Mostly Cloudy,0,2013-11-09 05:09:00
9:19 PM,60.8,57.2,88,29.99,8.0,Calm,Calm,-,N/A,,Scattered Clouds,0,2013-11-09 05:19:00
9:53 PM,61.0,57.0,87,30.00,8.0,Calm,Calm,-,N/A,,Clear,0,2013-11-09 05:53:00
10:11 PM,60.8,57.2,88,30.01,9.0,Calm,Calm,-,N/A,,Partly Cloudy,0,2013-11-09 06:11:00
10:53 PM,60.1,55.9,86,30.01,9.0,Calm,Calm,-,N/A,,Partly Cloudy,0,2013-11-09 06:53:00
11:05 PM,60.8,55.4,82,30.01,10.0,Calm,Calm,-,N/A,,Mostly Cloudy,0,2013-11-09 07:05:00
11:28 PM,60.8,57.2,88,30.01,6.0,Calm,Calm,-,N/A,,Overcast,0,2013-11-09 07:28:00
11:53 PM,60.1,57.0,90,30.01,5.0,Calm,Calm,-,N/A,,Overcast,0,2013-11-09 07:53:00